Time,TemperatureF,DewpointF,PressureIn,WindDirection,WindDirectionDegrees,WindSpeedMPH,WindSpeedGustMPH,Humidity,HourlyPrecipIn,Conditions,Clouds,dailyrainin,SoftwareType,DateUTC
2013-09-01 00:02:00,72.0,70.5,29.79,West,272,0.0,0.0,95,0.00,,,0.00,WeatherCatV1.20B785,2013-09-01 05:02:00,
2013-09-01 00:07:00,71.9,70.4,29.79,West,272,0.0,0.0,95,0.00,,,0.00,WeatherCatV1.20B785,2013-09-01 05:07:00,
2013-09-01 00:12:00,71.9,70.4,29.79,West,272,0.0,0.0,95,0.00,,,0.00,WeatherCatV1.20B785,2013-09-01 05:12:00,
2013-09-01 00:17:00,71.8,70.3,29.79,West,272,0.0,0.0,95,0.00,,,0.00,WeatherCatV1.20B785,2013-09-01 05:17:00,
2013-09-01 00:22:00,71.7,70.2,29.79,West,272,0.0,0.0,95,0.00,,,0.00,WeatherCatV1.20B785,2013-09-01 05:22:00,
2013-09-01 00:27:00,71.6,70.1,29.79,West,272,0.0,0.0,95,0.00,,,0.00,WeatherCatV1.20B785,2013-09-01 05:27:00,
2013-09-01 00:32:00,71.5,70.0,29.79,West,272,0.0,0.0,95,0.00,,,0.00,WeatherCatV1.20B785,2013-09-01 05:32:00,
2013-09-01 00:37:00,71.5,70.3,29.79,West,272,0.0,0.0,96,0.00,,,0.00,WeatherCatV1.20B785,2013-09-01 05:37:00,
2013-09-01 00:42:00,71.5,70.3,29.78,West,272,0.0,0.0,96,0.00,,,0.00,WeatherCatV1.20B785,2013-09-01 05:42:00,
2013-09-01 00:47:00,71.4,70.2,29.78,West,272,0.0,0.0,96,0.00,,,0.00,WeatherCatV1.20B785,2013-09-01 05:47:00,
2013-09-01 00:52:00,71.4,70.2,29.78,West,272,0.0,0.0,96,0.00,,,0.00,WeatherCatV1.20B785,2013-09-01 05:52:00,
2013-09-01 00:57:00,71.3,70.1,29.78,West,272,0.0,0.0,96,0.00,,,0.00,WeatherCatV1.20B785,2013-09-01 05:57:00,
2013-09-01 01:02:00,71.3,70.1,29.78,West,272,0.0,0.0,96,0.00,,,0.00,WeatherCatV1.20B785,2013-09-01 06:02:00,
2013-09-01 01:07:00,71.2,70.0,29.78,West,272,0.0,0.0,96,0.00,,,0.00,WeatherCatV1.20B785,2013-09-01 06:07:00,
2013-09-01 01:12:00,71.1,69.9,29.78,West,272,0.0,0.0,96,0.00,,,0.00,WeatherCatV1.20B785,2013-09-01 06:12:00,
2013-09-01 01:17:00,71.0,69.8,29.79,West,272,0.0,0.0,96,0.00,,,0.00,WeatherCatV1.20B785,2013-09-01 06:17:00,
2013-09-01 01:22:00,71.0,69.8,29.79,West,272,0.0,0.0,96,0.00,,,0.00,WeatherCatV1.20B785,2013-09-01 06:22:00,
2013-09-01 01:27:00,71.0,70.1,29.79,West,272,0.0,0.0,97,0.00,,,0.00,WeatherCatV1.20B785,2013-09-01 06:27:00,
2013-09-01 01:32:00,71.0,70.1,29.79,West,272,0.0,0.0,97,0.00,,,0.00,WeatherCatV1.20B785,2013-09-01 06:32:00,
2013-09-01 01:37:00,70.9,69.7,29.79,West,272,0.0,0.0,96,0.00,,,0.00,WeatherCatV1.20B785,2013-09-01 06:37:00,
2013-09-01 01:42:00,70.8,69.6,29.78,West,272,0.0,0.0,96,0.00,,,0.00,WeatherCatV1.20B785,2013-09-01 06:42:00,
2013-09-01 01:47:00,70.7,69.8,29.78,West,272,0.0,0.0,97,0.00,,,0.00,WeatherCatV1.20B785,2013-09-01 06:47:00,
2013-09-01 01:52:00,70.6,69.7,29.78,West,272,0.0,0.0,97,0.00,,,0.00,WeatherCatV1.20B785,2013-09-01 06:52:00,
2013-09-01 01:57:00,70.6,69.7,29.79,West,272,0.0,0.0,97,0.00,,,0.00,WeatherCatV1.20B785,2013-09-01 06:57:00,
2013-09-01 02:02:00,70.5,69.6,29.79,West,272,0.0,0.0,97,0.00,,,0.00,WeatherCatV1.20B785,2013-09-01 07:02:00,
2013-09-01 02:07:00,70.4,69.5,29.79,West,272,0.0,0.0,97,0.00,,,0.00,WeatherCatV1.20B785,2013-09-01 07:07:00,
2013-09-01 02:12:00,70.4,69.5,29.78,West,272,0.0,0.0,97,0.00,,,0.00,WeatherCatV1.20B785,2013-09-01 07:12:00,
2013-09-01 02:17:00,70.4,69.5,29.78,West,272,0.0,0.0,97,0.00,,,0.00,WeatherCatV1.20B785,2013-09-01 07:17:00,
2013-09-01 02:22:00,70.3,69.4,29.78,West,272,0.0,0.0,97,0.00,,,0.00,WeatherCatV1.20B785,2013-09-01 07:22:00,
2013-09-01 02:27:00,70.3,69.4,29.78,West,272,0.0,0.0,97,0.00,,,0.00,WeatherCatV1.20B785,2013-09-01 07:27:00,
2013-09-01 02:32:00,70.3,69.4,29.78,West,272,0.0,0.0,97,0.00,,,0.00,WeatherCatV1.20B785,2013-09-01 07:32:00,
2013-09-01 02:37:00,70.3,69.4,29.78,West,272,0.0,0.0,97,0.00,,,0.00,WeatherCatV1.20B785,2013-09-01 07:37:00,
2013-09-01 02:42:00,70.2,69.3,29.78,West,272,0.0,0.0,97,0.00,,,0.00,WeatherCatV1.20B785,2013-09-01 07:42:00,
2013-09-01 02:47:00,70.2,69.3,29.78,West,272,0.0,0.0,97,0.00,,,0.00,WeatherCatV1.20B785,2013-09-01 07:47:00,
2013-09-01 02:52:00,70.2,69.3,29.78,West,272,0.0,0.0,97,0.00,,,0.00,WeatherCatV1.20B785,2013-09-01 07:52:00,
2013-09-01 02:57:00,70.2,69.3,29.78,West,272,0.0,0.0,97,0.00,,,0.00,WeatherCatV1.20B785,2013-09-01 07:57:00,
2013-09-01 03:02:00,70.1,69.2,29.78,West,272,0.0,0.0,97,0.00,,,0.00,WeatherCatV1.20B785,2013-09-01 08:02:00,
2013-09-01 03:07:00,70.2,69.6,29.78,West,272,0.0,0.0,98,0.00,,,0.00,WeatherCatV1.20B785,2013-09-01 08:07:00,
2013-09-01 03:12:00,70.3,69.7,29.78,West,272,0.0,0.0,98,0.00,,,0.00,WeatherCatV1.20B785,2013-09-01 08:12:00,
2013-09-01 03:17:00,70.4,69.8,29.78,West,272,0.0,0.0,98,0.00,,,0.00,WeatherCatV1.20B785,2013-09-01 08:17:00,
2013-09-01 03:22:00,70.4,69.8,29.78,West,272,0.0,0.0,98,0.00,,,0.00,WeatherCatV1.20B785,2013-09-01 08:22:00,
2013-09-01 03:27:00,70.5,69.9,29.78,West,272,0.0,0.0,98,0.00,,,0.00,WeatherCatV1.20B785,2013-09-01 08:27:00,
2013-09-01 03:32:00,70.5,69.9,29.78,West,272,0.0,0.0,98,0.00,,,0.00,WeatherCatV1.20B785,2013-09-01 08:32:00,
2013-09-01 03:37:00,70.5,69.9,29.78,West,272,0.0,0.0,98,0.00,,,0.00,WeatherCatV1.20B785,2013-09-01 08:37:00,
2013-09-01 03:42:00,70.5,69.9,29.78,West,272,0.0,0.0,98,0.00,,,0.00,WeatherCatV1.20B785,2013-09-01 08:42:00,
2013-09-01 03:47:00,70.6,70.0,29.78,West,272,0.0,0.0,98,0.00,,,0.00,WeatherCatV1.20B785,2013-09-01 08:47:00,
2013-09-01 03:52:00,70.7,70.1,29.78,West,272,0.0,0.0,98,0.00,,,0.00,WeatherCatV1.20B785,2013-09-01 08:52:00,
2013-09-01 03:57:00,70.8,70.2,29.78,West,272,0.0,0.0,98,0.00,,,0.00,WeatherCatV1.20B785,2013-09-01 08:57:00,
2013-09-01 04:02:00,70.8,70.2,29.78,West,272,0.0,0.0,98,0.00,,,0.00,WeatherCatV1.20B785,2013-09-01 09:02:00,
2013-09-01 04:07:00,70.8,70.2,29.78,West,272,0.0,0.0,98,0.00,,,0.00,WeatherCatV1.20B785,2013-09-01 09:07:00,
2013-09-01 04:12:00,70.9,70.3,29.78,West,272,0.0,0.0,98,0.00,,,0.00,WeatherCatV1.20B785,2013-09-01 09:12:00,
2013-09-01 04:17:00,71.0,70.4,29.78,West,272,0.0,0.0,98,0.00,,,0.00,WeatherCatV1.20B785,2013-09-01 09:17:00,
2013-09-01 04:22:00,71.2,70.9,29.78,West,272,0.0,0.0,99,0.00,,,0.00,WeatherCatV1.20B785,2013-09-01 09:22:00,
2013-09-01 04:27:00,71.2,70.9,29.78,West,272,0.0,0.0,99,0.00,,,0.00,WeatherCatV1.20B785,2013-09-01 09:27:00,
2013-09-01 04:32:00,71.2,70.9,29.78,West,272,0.0,0.0,99,0.00,,,0.00,WeatherCatV1.20B785,2013-09-01 09:32:00,
2013-09-01 04:37:00,71.3,71.0,29.78,West,272,0.0,0.0,99,0.00,,,0.00,WeatherCatV1.20B785,2013-09-01 09:37:00,
2013-09-01 04:42:00,71.3,71.0,29.78,West,272,0.0,0.0,99,0.00,,,0.00,WeatherCatV1.20B785,2013-09-01 09:42:00,
2013-09-01 04:47:00,71.3,71.0,29.78,West,272,0.0,0.0,99,0.00,,,0.00,WeatherCatV1.20B785,2013-09-01 09:47:00,
2013-09-01 04:52:00,71.3,71.0,29.78,West,272,0.0,0.0,99,0.00,,,0.00,WeatherCatV1.20B785,2013-09-01 09:52:00,
2013-09-01 04:57:00,71.4,71.1,29.78,West,272,0.0,0.0,99,0.00,,,0.00,WeatherCatV1.20B785,2013-09-01 09:57:00,
2013-09-01 05:02:00,71.5,71.2,29.78,West,272,0.0,0.0,99,0.00,,,0.00,WeatherCatV1.20B785,2013-09-01 10:02:00,
2013-09-01 05:07:00,71.5,71.2,29.78,West,272,0.0,0.0,99,0.00,,,0.00,WeatherCatV1.20B785,2013-09-01 10:07:00,
2013-09-01 05:12:00,71.5,71.2,29.78,West,272,0.0,0.0,99,0.00,,,0.00,WeatherCatV1.20B785,2013-09-01 10:12:00,
2013-09-01 05:17:00,71.5,71.2,29.78,West,272,0.0,0.0,99,0.00,,,0.00,WeatherCatV1.20B785,2013-09-01 10:17:00,
2013-09-01 05:22:00,71.5,71.2,29.78,West,272,0.0,0.0,99,0.00,,,0.00,WeatherCatV1.20B785,2013-09-01 10:22:00,
2013-09-01 05:27:00,71.5,71.2,29.78,West,272,0.0,0.0,99,0.00,,,0.00,WeatherCatV1.20B785,2013-09-01 10:27:00,
2013-09-01 05:32:00,71.5,71.2,29.78,West,272,0.0,0.0,99,0.00,,,0.00,WeatherCatV1.20B785,2013-09-01 10:32:00,
2013-09-01 05:37:00,71.5,71.2,29.78,West,272,0.0,0.0,99,0.00,,,0.00,WeatherCatV1.20B785,2013-09-01 10:37:00,
2013-09-01 05:42:00,71.4,71.1,29.78,West,272,0.0,0.0,99,0.00,,,0.00,WeatherCatV1.20B785,2013-09-01 10:42:00,
2013-09-01 05:47:00,71.4,71.1,29.78,West,272,0.0,0.0,99,0.00,,,0.00,WeatherCatV1.20B785,2013-09-01 10:47:00,
2013-09-01 05:52:00,71.4,71.1,29.78,West,272,0.0,0.0,99,0.00,,,0.00,WeatherCatV1.20B785,2013-09-01 10:52:00,
2013-09-01 05:57:00,71.4,71.1,29.78,West,272,0.0,0.0,99,0.00,,,0.00,WeatherCatV1.20B785,2013-09-01 10:57:00,
2013-09-01 06:02:00,71.4,71.1,29.78,West,272,0.0,0.0,99,0.00,,,0.00,WeatherCatV1.20B785,2013-09-01 11:02:00,
2013-09-01 06:07:00,71.4,71.1,29.78,West,272,0.0,0.0,99,0.00,,,0.00,WeatherCatV1.20B785,2013-09-01 11:07:00,
2013-09-01 06:12:00,71.4,71.1,29.78,West,272,0.0,0.0,99,0.00,,,0.00,WeatherCatV1.20B785,2013-09-01 11:12:00,
2013-09-01 06:17:00,71.3,71.0,29.78,West,272,0.0,0.0,99,0.00,,,0.00,WeatherCatV1.20B785,2013-09-01 11:17:00,
2013-09-01 06:22:00,71.3,71.0,29.78,West,272,0.0,0.0,99,0.00,,,0.00,WeatherCatV1.20B785,2013-09-01 11:22:00,
2013-09-01 06:27:00,71.2,70.9,29.79,West,272,0.0,0.0,99,0.00,,,0.00,WeatherCatV1.20B785,2013-09-01 11:27:00,
2013-09-01 06:32:00,71.2,70.9,29.79,West,272,0.0,0.0,99,0.00,,,0.00,WeatherCatV1.20B785,2013-09-01 11:32:00,
2013-09-01 06:37:00,71.2,70.9,29.79,West,272,0.0,0.0,99,0.00,,,0.00,WeatherCatV1.20B785,2013-09-01 11:37:00,
2013-09-01 06:42:00,71.2,70.9,29.80,West,272,0.0,0.0,99,0.00,,,0.00,WeatherCatV1.20B785,2013-09-01 11:42:00,
2013-09-01 06:47:00,71.2,70.9,29.80,West,272,0.0,0.0,99,0.00,,,0.00,WeatherCatV1.20B785,2013-09-01 11:47:00,
2013-09-01 06:52:00,71.1,70.8,29.80,West,272,0.0,0.0,99,0.00,,,0.00,WeatherCatV1.20B785,2013-09-01 11:52:00,
2013-09-01 06:57:00,71.1,70.8,29.80,West,272,0.0,0.0,99,0.00,,,0.00,WeatherCatV1.20B785,2013-09-01 11:57:00,
2013-09-01 07:02:00,71.0,70.7,29.81,West,272,1.0,1.0,99,0.00,,,0.00,WeatherCatV1.20B785,2013-09-01 12:02:00,
2013-09-01 07:07:00,71.0,70.7,29.81,West,272,0.0,0.0,99,0.00,,,0.00,WeatherCatV1.20B785,2013-09-01 12:07:00,
2013-09-01 07:12:00,71.1,70.8,29.81,West,272,0.0,0.0,99,0.00,,,0.00,WeatherCatV1.20B785,2013-09-01 12:12:00,
2013-09-01 07:17:00,71.2,70.9,29.81,West,272,0.0,0.0,99,0.00,,,0.00,WeatherCatV1.20B785,2013-09-01 12:17:00,
2013-09-01 07:22:00,71.3,71.0,29.81,West,272,0.0,0.0,99,0.00,,,0.00,WeatherCatV1.20B785,2013-09-01 12:22:00,
2013-09-01 07:27:00,71.5,71.2,29.81,West,272,0.0,0.0,99,0.00,,,0.00,WeatherCatV1.20B785,2013-09-01 12:27:00,
2013-09-01 07:32:00,71.7,71.4,29.81,West,272,0.0,0.0,99,0.00,,,0.00,WeatherCatV1.20B785,2013-09-01 12:32:00,
2013-09-01 07:37:00,72.0,71.7,29.81,West,272,0.0,0.0,99,0.00,,,0.00,WeatherCatV1.20B785,2013-09-01 12:37:00,
2013-09-01 07:42:00,72.3,72.0,29.81,West,272,0.0,0.0,99,0.00,,,0.00,WeatherCatV1.20B785,2013-09-01 12:42:00,
2013-09-01 07:47:00,72.6,72.6,29.81,West,272,0.0,0.0,100,0.00,,,0.00,WeatherCatV1.20B785,2013-09-01 12:47:00,
2013-09-01 07:52:00,73.1,73.1,29.82,West,272,0.0,1.0,100,0.00,,,0.00,WeatherCatV1.20B785,2013-09-01 12:52:00,
2013-09-01 07:57:00,73.4,73.4,29.82,West,271,0.0,0.0,100,0.00,,,0.00,WeatherCatV1.20B785,2013-09-01 12:57:00,
2013-09-01 08:02:00,73.6,73.3,29.81,West,271,0.0,0.0,99,0.00,,,0.00,WeatherCatV1.20B785,2013-09-01 13:02:00,
2013-09-01 08:07:00,73.8,73.5,29.81,SSW,204,0.0,1.0,99,0.00,,,0.00,WeatherCatV1.20B785,2013-09-01 13:07:00,
2013-09-01 08:12:00,73.7,73.4,29.81,SW,232,0.0,1.0,99,0.00,,,0.00,WeatherCatV1.20B785,2013-09-01 13:12:00,
2013-09-01 08:17:00,73.7,73.4,29.81,SW,219,0.0,1.0,99,0.00,,,0.00,WeatherCatV1.20B785,2013-09-01 13:17:00,
2013-09-01 08:22:00,73.8,73.5,29.81,WSW,237,1.0,1.0,99,0.00,,,0.00,WeatherCatV1.20B785,2013-09-01 13:22:00,
2013-09-01 08:27:00,73.9,73.6,29.81,WSW,254,0.0,0.0,99,0.00,,,0.00,WeatherCatV1.20B785,2013-09-01 13:27:00,
2013-09-01 08:32:00,74.0,73.7,29.81,ENE,78,0.0,1.0,99,0.00,,,0.00,WeatherCatV1.20B785,2013-09-01 13:32:00,
2013-09-01 08:37:00,74.3,74.0,29.81,WSW,250,2.0,2.0,99,0.00,,,0.00,WeatherCatV1.20B785,2013-09-01 13:37:00,
2013-09-01 08:42:00,74.5,74.2,29.82,WSW,248,1.0,1.0,99,0.00,,,0.00,WeatherCatV1.20B785,2013-09-01 13:42:00,
2013-09-01 08:47:00,74.7,74.1,29.82,WSW,245,1.0,1.0,98,0.00,,,0.00,WeatherCatV1.20B785,2013-09-01 13:47:00,
2013-09-01 08:52:00,74.8,74.2,29.82,SSW,204,0.0,1.0,98,0.00,,,0.00,WeatherCatV1.20B785,2013-09-01 13:52:00,
2013-09-01 08:57:00,74.9,74.0,29.82,SW,234,0.0,1.0,97,0.00,,,0.00,WeatherCatV1.20B785,2013-09-01 13:57:00,
2013-09-01 09:02:00,75.1,74.2,29.82,SW,230,1.0,5.0,97,0.00,,,0.00,WeatherCatV1.20B785,2013-09-01 14:02:00,
2013-09-01 09:07:00,75.1,73.9,29.83,South,184,1.0,4.0,96,0.00,,,0.00,WeatherCatV1.20B785,2013-09-01 14:07:00,
2013-09-01 09:12:00,75.2,73.7,29.83,SW,232,1.0,5.0,95,0.00,,,0.00,WeatherCatV1.20B785,2013-09-01 14:12:00,
2013-09-01 09:17:00,75.3,73.4,29.83,SSW,209,1.0,3.0,94,0.00,,,0.00,WeatherCatV1.20B785,2013-09-01 14:17:00,
2013-09-01 09:22:00,75.4,73.2,29.84,North,355,1.0,2.0,93,0.00,,,0.00,WeatherCatV1.20B785,2013-09-01 14:22:00,
2013-09-01 09:27:00,75.6,73.1,29.84,WNW,302,0.0,1.0,92,0.00,,,0.00,WeatherCatV1.20B785,2013-09-01 14:27:00,
2013-09-01 09:32:00,75.7,72.9,29.85,South,178,1.0,2.0,91,0.00,,,0.00,WeatherCatV1.20B785,2013-09-01 14:32:00,
2013-09-01 09:37:00,75.9,72.4,29.84,WNW,284,2.0,3.0,89,0.00,,,0.00,WeatherCatV1.20B785,2013-09-01 14:37:00,
2013-09-01 09:42:00,76.1,72.6,29.83,WSW,250,1.0,3.0,89,0.00,,,0.00,WeatherCatV1.20B785,2013-09-01 14:42:00,
2013-09-01 09:47:00,76.3,72.5,29.83,SSW,202,1.0,2.0,88,0.00,,,0.00,WeatherCatV1.20B785,2013-09-01 14:47:00,
2013-09-01 09:52:00,76.4,72.6,29.83,SW,227,1.0,3.0,88,0.00,,,0.00,WeatherCatV1.20B785,2013-09-01 14:52:00,
2013-09-01 09:57:00,76.4,72.2,29.83,South,180,0.0,5.0,87,0.00,,,0.00,WeatherCatV1.20B785,2013-09-01 14:57:00,
2013-09-01 10:02:00,76.4,71.9,29.83,SW,225,3.0,5.0,86,0.00,,,0.00,WeatherCatV1.20B785,2013-09-01 15:02:00,
2013-09-01 10:07:00,76.4,71.5,29.83,WSW,240,4.0,4.0,85,0.00,,,0.00,WeatherCatV1.20B785,2013-09-01 15:07:00,
2013-09-01 10:12:00,76.4,71.2,29.83,SW,223,0.0,8.0,84,0.00,,,0.00,WeatherCatV1.20B785,2013-09-01 15:12:00,
2013-09-01 10:17:00,76.4,71.5,29.83,South,186,1.0,1.0,85,0.00,,,0.00,WeatherCatV1.20B785,2013-09-01 15:17:00,
2013-09-01 10:22:00,76.5,71.6,29.83,South,178,2.0,2.0,85,0.00,,,0.00,WeatherCatV1.20B785,2013-09-01 15:22:00,
2013-09-01 10:27:00,76.4,71.2,29.83,SSE,155,0.0,2.0,84,0.00,,,0.00,WeatherCatV1.20B785,2013-09-01 15:27:00,
2013-09-01 10:32:00,76.3,71.1,29.84,ESE,119,0.0,0.0,84,0.00,,,0.00,WeatherCatV1.20B785,2013-09-01 15:32:00,
2013-09-01 10:37:00,76.3,71.1,29.84,ESE,119,0.0,0.0,84,0.00,,,0.00,WeatherCatV1.20B785,2013-09-01 15:37:00,
2013-09-01 10:42:00,76.5,71.6,29.87,NNW,348,12.0,13.0,85,0.00,,,0.00,WeatherCatV1.20B785,2013-09-01 15:42:00,
2013-09-01 10:47:00,76.8,70.9,29.88,North,0,9.0,17.0,82,0.00,,,0.00,WeatherCatV1.20B785,2013-09-01 15:47:00,
2013-09-01 10:52:00,77.2,70.5,29.89,ENE,59,3.0,12.0,80,0.00,,,0.00,WeatherCatV1.20B785,2013-09-01 15:52:00,
2013-09-01 10:57:00,78.0,69.8,29.89,North,9,6.0,12.0,76,0.00,,,0.00,WeatherCatV1.20B785,2013-09-01 15:57:00,
2013-09-01 11:02:00,78.7,70.1,29.90,NNW,345,10.0,16.0,75,0.00,,,0.00,WeatherCatV1.20B785,2013-09-01 16:02:00,
2013-09-01 11:07:00,79.2,71.3,29.90,NNE,16,9.0,15.0,77,0.00,,,0.00,WeatherCatV1.20B785,2013-09-01 16:07:00,
2013-09-01 11:12:00,79.5,72.0,29.90,NE,34,6.0,12.0,78,0.00,,,0.00,WeatherCatV1.20B785,2013-09-01 16:12:00,
2013-09-01 11:17:00,79.8,72.7,29.90,North,355,6.0,12.0,79,0.00,,,0.00,WeatherCatV1.20B785,2013-09-01 16:17:00,
2013-09-01 11:22:00,80.1,72.6,29.90,North,355,4.0,15.0,78,0.00,,,0.00,WeatherCatV1.20B785,2013-09-01 16:22:00,
2013-09-01 11:27:00,80.0,72.1,29.89,NNW,338,13.0,13.0,77,0.00,,,0.00,WeatherCatV1.20B785,2013-09-01 16:27:00,
2013-09-01 11:32:00,79.9,72.4,29.89,North,0,8.0,11.0,78,0.00,,,0.00,WeatherCatV1.20B785,2013-09-01 16:32:00,
2013-09-01 11:37:00,79.7,72.2,29.89,NE,38,2.0,9.0,78,0.00,,,0.00,WeatherCatV1.20B785,2013-09-01 16:37:00,
2013-09-01 11:42:00,79.3,71.8,29.90,NE,36,2.0,7.0,78,0.00,,,0.00,WeatherCatV1.20B785,2013-09-01 16:42:00,
2013-09-01 11:47:00,79.0,71.5,29.90,North,0,7.0,9.0,78,0.00,,,0.00,WeatherCatV1.20B785,2013-09-01 16:47:00,
2013-09-01 11:52:00,78.6,71.2,29.89,NNW,337,3.0,4.0,78,0.00,,,0.00,WeatherCatV1.20B785,2013-09-01 16:52:00,
2013-09-01 11:57:00,78.3,70.9,29.89,ENE,65,2.0,6.0,78,0.00,,,0.00,WeatherCatV1.20B785,2013-09-01 16:57:00,
2013-09-01 12:02:00,78.0,70.6,29.89,North,355,1.0,9.0,78,0.00,,,0.00,WeatherCatV1.20B785,2013-09-01 17:02:00,
2013-09-01 12:07:00,77.8,70.8,29.89,NNE,26,0.0,4.0,79,0.00,,,0.00,WeatherCatV1.20B785,2013-09-01 17:07:00,
2013-09-01 12:12:00,77.7,70.7,29.88,ENE,63,5.0,5.0,79,0.00,,,0.00,WeatherCatV1.20B785,2013-09-01 17:12:00,
2013-09-01 12:17:00,77.6,70.6,29.88,NE,55,2.0,5.0,79,0.00,,,0.00,WeatherCatV1.20B785,2013-09-01 17:17:00,
2013-09-01 12:22:00,77.6,70.6,29.88,ESE,105,1.0,3.0,79,0.00,,,0.00,WeatherCatV1.20B785,2013-09-01 17:22:00,
2013-09-01 12:27:00,78.0,71.3,29.87,NNW,344,0.0,4.0,80,0.00,,,0.00,WeatherCatV1.20B785,2013-09-01 17:27:00,
2013-09-01 12:32:00,78.5,71.4,29.87,East,91,5.0,11.0,79,0.00,,,0.00,WeatherCatV1.20B785,2013-09-01 17:32:00,
2013-09-01 12:37:00,79.0,71.5,29.87,NE,34,1.0,4.0,78,0.00,,,0.00,WeatherCatV1.20B785,2013-09-01 17:37:00,
2013-09-01 12:42:00,79.4,72.3,29.86,NNE,30,4.0,5.0,79,0.00,,,0.00,WeatherCatV1.20B785,2013-09-01 17:42:00,
2013-09-01 12:47:00,79.5,71.2,29.86,East,88,5.0,10.0,76,0.00,,,0.00,WeatherCatV1.20B785,2013-09-01 17:47:00,
2013-09-01 12:52:00,79.4,71.2,29.86,NNW,338,4.0,6.0,76,0.00,,,0.00,WeatherCatV1.20B785,2013-09-01 17:52:00,
2013-09-01 12:57:00,79.3,71.1,29.86,East,86,2.0,7.0,76,0.00,,,0.00,WeatherCatV1.20B785,2013-09-01 17:57:00,
2013-09-01 13:02:00,79.1,71.2,29.86,NE,55,2.0,3.0,77,0.00,,,0.00,WeatherCatV1.20B785,2013-09-01 18:02:00,
2013-09-01 13:07:00,79.0,71.2,29.86,ESE,115,0.0,3.0,77,0.00,,,0.00,WeatherCatV1.20B785,2013-09-01 18:07:00,
2013-09-01 13:12:00,78.9,71.4,29.85,East,80,0.0,1.0,78,0.00,,,0.00,WeatherCatV1.20B785,2013-09-01 18:12:00,
2013-09-01 13:17:00,78.9,71.4,29.85,East,83,5.0,6.0,78,0.00,,,0.00,WeatherCatV1.20B785,2013-09-01 18:17:00,
2013-09-01 13:22:00,79.1,71.2,29.85,East,82,2.0,4.0,77,0.00,,,0.00,WeatherCatV1.20B785,2013-09-01 18:22:00,
2013-09-01 13:27:00,79.3,71.4,29.85,ESE,104,2.0,6.0,77,0.00,,,0.00,WeatherCatV1.20B785,2013-09-01 18:27:00,
2013-09-01 13:32:00,79.2,70.6,29.86,East,99,3.0,3.0,75,0.00,,,0.00,WeatherCatV1.20B785,2013-09-01 18:32:00,
2013-09-01 13:37:00,79.3,71.1,29.86,SE,136,2.0,3.0,76,0.00,,,0.00,WeatherCatV1.20B785,2013-09-01 18:37:00,
2013-09-01 13:42:00,79.5,71.6,29.85,SSE,149,1.0,3.0,77,0.00,,,0.00,WeatherCatV1.20B785,2013-09-01 18:42:00,
2013-09-01 13:47:00,79.7,72.2,29.85,SSE,149,0.0,0.0,78,0.00,,,0.00,WeatherCatV1.20B785,2013-09-01 18:47:00,
2013-09-01 13:52:00,79.9,72.0,29.85,SSE,149,0.0,0.0,77,0.00,,,0.00,WeatherCatV1.20B785,2013-09-01 18:52:00,
2013-09-01 13:57:00,80.2,73.1,29.85,SSE,149,0.0,1.0,79,0.00,,,0.00,WeatherCatV1.20B785,2013-09-01 18:57:00,
2013-09-01 14:02:00,80.4,72.5,29.85,SSE,149,0.0,0.0,77,0.00,,,0.00,WeatherCatV1.20B785,2013-09-01 19:02:00,
2013-09-01 14:07:00,80.5,72.2,29.85,WSW,240,1.0,2.0,76,0.00,,,0.00,WeatherCatV1.20B785,2013-09-01 19:07:00,
2013-09-01 14:12:00,80.7,73.2,29.85,WSW,240,1.0,1.0,78,0.00,,,0.00,WeatherCatV1.20B785,2013-09-01 19:12:00,
2013-09-01 14:17:00,80.8,73.3,29.85,WSW,240,0.0,1.0,78,0.00,,,0.00,WeatherCatV1.20B785,2013-09-01 19:17:00,
2013-09-01 14:22:00,80.7,72.8,29.85,WSW,240,0.0,0.0,77,0.00,,,0.00,WeatherCatV1.20B785,2013-09-01 19:22:00,
2013-09-01 14:27:00,80.7,73.2,29.84,WSW,240,1.0,1.0,78,0.00,,,0.00,WeatherCatV1.20B785,2013-09-01 19:27:00,
2013-09-01 14:32:00,80.5,73.7,29.83,WSW,240,0.0,0.0,80,0.00,,,0.00,WeatherCatV1.20B785,2013-09-01 19:32:00,
2013-09-01 14:37:00,80.1,73.0,29.83,WSW,239,1.0,1.0,79,0.00,,,0.00,WeatherCatV1.20B785,2013-09-01 19:37:00,
2013-09-01 14:42:00,79.7,73.3,29.81,SSW,212,1.0,4.0,81,0.00,,,0.00,WeatherCatV1.20B785,2013-09-01 19:42:00,
2013-09-01 14:47:00,79.2,72.8,29.79,South,170,7.0,8.0,81,0.00,,,0.00,WeatherCatV1.20B785,2013-09-01 19:47:00,
2013-09-01 14:52:00,78.6,72.3,29.77,SSE,151,1.0,11.0,81,0.00,,,0.00,WeatherCatV1.20B785,2013-09-01 19:52:00,
2013-09-01 14:57:00,78.4,72.4,29.76,SW,218,3.0,7.0,82,0.00,,,0.00,WeatherCatV1.20B785,2013-09-01 19:57:00,
2013-09-01 15:02:00,78.5,72.5,29.77,SSE,162,1.0,10.0,82,0.00,,,0.00,WeatherCatV1.20B785,2013-09-01 20:02:00,
2013-09-01 15:07:00,78.7,73.1,29.77,SE,142,4.0,10.0,83,0.00,,,0.00,WeatherCatV1.20B785,2013-09-01 20:07:00,
2013-09-01 15:12:00,78.8,73.2,29.77,WSW,248,3.0,8.0,83,0.00,,,0.00,WeatherCatV1.20B785,2013-09-01 20:12:00,
2013-09-01 15:17:00,78.9,73.3,29.78,South,173,1.0,6.0,83,0.00,,,0.00,WeatherCatV1.20B785,2013-09-01 20:17:00,
2013-09-01 15:22:00,78.9,73.3,29.78,SSW,192,3.0,6.0,83,0.00,,,0.00,WeatherCatV1.20B785,2013-09-01 20:22:00,
2013-09-01 15:27:00,78.9,72.9,29.78,SSW,194,4.0,6.0,82,0.00,,,0.00,WeatherCatV1.20B785,2013-09-01 20:27:00,
2013-09-01 15:32:00,78.9,72.9,29.78,SSE,152,2.0,4.0,82,0.00,,,0.00,WeatherCatV1.20B785,2013-09-01 20:32:00,
2013-09-01 15:37:00,79.2,73.6,29.78,SW,232,2.0,7.0,83,0.00,,,0.00,WeatherCatV1.20B785,2013-09-01 20:37:00,
2013-09-01 15:42:00,79.9,74.3,29.79,WSW,248,6.0,6.0,83,0.00,,,0.00,WeatherCatV1.20B785,2013-09-01 20:42:00,
2013-09-01 15:47:00,80.6,74.2,29.79,SSE,150,1.0,6.0,81,0.00,,,0.00,WeatherCatV1.20B785,2013-09-01 20:47:00,
2013-09-01 15:52:00,81.0,73.8,29.79,SSE,160,2.0,9.0,79,0.00,,,0.00,WeatherCatV1.20B785,2013-09-01 20:52:00,
2013-09-01 15:57:00,81.5,74.7,29.79,South,173,1.0,3.0,80,0.00,,,0.00,WeatherCatV1.20B785,2013-09-01 20:57:00,
2013-09-01 16:02:00,81.9,74.0,29.79,South,188,5.0,5.0,77,0.00,,,0.00,WeatherCatV1.20B785,2013-09-01 21:02:00,
2013-09-01 16:07:00,82.2,73.9,29.80,WNW,302,2.0,5.0,76,0.00,,,0.00,WeatherCatV1.20B785,2013-09-01 21:07:00,
2013-09-01 16:12:00,82.5,72.9,29.79,SSW,204,0.0,7.0,73,0.00,,,0.00,WeatherCatV1.20B785,2013-09-01 21:12:00,
2013-09-01 16:17:00,82.7,73.1,29.79,SSW,211,1.0,7.0,73,0.00,,,0.00,WeatherCatV1.20B785,2013-09-01 21:17:00,
2013-09-01 16:22:00,83.0,73.4,29.79,SSW,198,0.0,3.0,73,0.00,,,0.00,WeatherCatV1.20B785,2013-09-01 21:22:00,
2013-09-01 16:27:00,83.2,73.2,29.79,South,182,0.0,4.0,72,0.00,,,0.00,WeatherCatV1.20B785,2013-09-01 21:27:00,
2013-09-01 16:32:00,83.4,73.4,29.78,SW,215,1.0,3.0,72,0.00,,,0.00,WeatherCatV1.20B785,2013-09-01 21:32:00,
2013-09-01 16:37:00,83.7,73.3,29.78,SW,228,1.0,3.0,71,0.00,,,0.00,WeatherCatV1.20B785,2013-09-01 21:37:00,
2013-09-01 16:42:00,83.9,73.5,29.78,SE,145,2.0,5.0,71,0.00,,,0.00,WeatherCatV1.20B785,2013-09-01 21:42:00,
2013-09-01 16:47:00,83.9,73.0,29.78,SE,142,3.0,5.0,70,0.00,,,0.00,WeatherCatV1.20B785,2013-09-01 21:47:00,
2013-09-01 16:52:00,84.1,73.7,29.78,SSW,199,1.0,3.0,71,0.00,,,0.00,WeatherCatV1.20B785,2013-09-01 21:52:00,
2013-09-01 16:57:00,84.3,73.4,29.78,SE,137,1.0,6.0,70,0.00,,,0.00,WeatherCatV1.20B785,2013-09-01 21:57:00,
2013-09-01 17:02:00,84.4,73.1,29.79,SSW,201,0.0,2.0,69,0.00,,,0.00,WeatherCatV1.20B785,2013-09-01 22:02:00,
2013-09-01 17:07:00,84.7,73.4,29.79,SW,217,2.0,2.0,69,0.00,,,0.00,WeatherCatV1.20B785,2013-09-01 22:07:00,
2013-09-01 17:12:00,84.9,73.1,29.80,West,259,1.0,1.0,68,0.00,,,0.00,WeatherCatV1.20B785,2013-09-01 22:12:00,
2013-09-01 17:17:00,85.1,73.8,29.80,West,259,0.0,0.0,69,0.00,,,0.00,WeatherCatV1.20B785,2013-09-01 22:17:00,
2013-09-01 17:22:00,85.2,73.0,29.80,West,259,0.0,1.0,67,0.00,,,0.00,WeatherCatV1.20B785,2013-09-01 22:22:00,
2013-09-01 17:27:00,85.2,73.0,29.80,West,259,0.0,0.0,67,0.00,,,0.00,WeatherCatV1.20B785,2013-09-01 22:27:00,
2013-09-01 17:32:00,85.3,74.4,29.81,West,259,0.0,0.0,70,0.00,,,0.00,WeatherCatV1.20B785,2013-09-01 22:32:00,
2013-09-01 17:37:00,85.3,73.9,29.81,West,259,0.0,0.0,69,0.00,,,0.00,WeatherCatV1.20B785,2013-09-01 22:37:00,
2013-09-01 17:42:00,85.4,75.3,29.81,West,259,0.0,0.0,72,0.00,,,0.00,WeatherCatV1.20B785,2013-09-01 22:42:00,
2013-09-01 17:47:00,85.3,75.2,29.81,West,259,0.0,0.0,72,0.00,,,0.00,WeatherCatV1.20B785,2013-09-01 22:47:00,
2013-09-01 17:52:00,85.3,74.4,29.81,West,259,0.0,0.0,70,0.00,,,0.00,WeatherCatV1.20B785,2013-09-01 22:52:00,
2013-09-01 17:57:00,85.4,74.5,29.81,WSW,250,0.0,6.0,70,0.00,,,0.00,WeatherCatV1.20B785,2013-09-01 22:57:00,
2013-09-01 18:02:00,85.4,74.0,29.81,WSW,246,1.0,2.0,69,0.00,,,0.00,WeatherCatV1.20B785,2013-09-01 23:02:00,
2013-09-01 18:07:00,85.4,74.0,29.82,WSW,244,0.0,2.0,69,0.00,,,0.00,WeatherCatV1.20B785,2013-09-01 23:07:00,
2013-09-01 18:12:00,85.4,74.9,29.82,WSW,244,0.0,0.0,71,0.00,,,0.00,WeatherCatV1.20B785,2013-09-01 23:12:00,
2013-09-01 18:17:00,85.5,75.0,29.82,WSW,244,0.0,1.0,71,0.00,,,0.00,WeatherCatV1.20B785,2013-09-01 23:17:00,
2013-09-01 18:22:00,85.3,75.2,29.82,WSW,244,0.0,0.0,72,0.00,,,0.00,WeatherCatV1.20B785,2013-09-01 23:22:00,
2013-09-01 18:27:00,85.2,75.1,29.82,WSW,244,0.0,0.0,72,0.00,,,0.00,WeatherCatV1.20B785,2013-09-01 23:27:00,
2013-09-01 18:32:00,85.0,74.9,29.82,WSW,244,0.0,0.0,72,0.00,,,0.00,WeatherCatV1.20B785,2013-09-01 23:32:00,
2013-09-01 18:37:00,84.7,75.1,29.82,WSW,244,0.0,0.0,73,0.00,,,0.00,WeatherCatV1.20B785,2013-09-01 23:37:00,
2013-09-01 18:42:00,84.2,75.0,29.82,WSW,244,0.0,0.0,74,0.00,,,0.00,WeatherCatV1.20B785,2013-09-01 23:42:00,
2013-09-01 18:47:00,83.6,74.8,29.82,WSW,244,0.0,0.0,75,0.00,,,0.00,WeatherCatV1.20B785,2013-09-01 23:47:00,
2013-09-01 18:52:00,82.9,74.1,29.82,WSW,244,0.0,0.0,75,0.00,,,0.00,WeatherCatV1.20B785,2013-09-01 23:52:00,
2013-09-01 18:57:00,82.4,74.1,29.82,WSW,244,0.0,0.0,76,0.00,,,0.00,WeatherCatV1.20B785,2013-09-01 23:57:00,
2013-09-01 19:02:00,82.0,73.7,29.82,WSW,244,0.0,0.0,76,0.00,,,0.00,WeatherCatV1.20B785,2013-09-02 00:02:00,
2013-09-01 19:07:00,81.6,73.7,29.83,WSW,244,0.0,0.0,77,0.00,,,0.00,WeatherCatV1.20B785,2013-09-02 00:07:00,
2013-09-01 19:12:00,81.1,73.6,29.83,WSW,244,0.0,0.0,78,0.00,,,0.00,WeatherCatV1.20B785,2013-09-02 00:12:00,
2013-09-01 19:17:00,80.8,73.7,29.83,WSW,244,0.0,0.0,79,0.00,,,0.00,WeatherCatV1.20B785,2013-09-02 00:17:00,
2013-09-01 19:22:00,80.3,73.6,29.83,WSW,244,0.0,0.0,80,0.00,,,0.00,WeatherCatV1.20B785,2013-09-02 00:22:00,
2013-09-01 19:27:00,79.7,73.0,29.83,WSW,244,0.0,0.0,80,0.00,,,0.00,WeatherCatV1.20B785,2013-09-02 00:27:00,
2013-09-01 19:32:00,79.3,72.6,29.83,WSW,244,0.0,0.0,80,0.00,,,0.00,WeatherCatV1.20B785,2013-09-02 00:32:00,
2013-09-01 19:37:00,79.0,72.7,29.83,WSW,244,0.0,0.0,81,0.00,,,0.00,WeatherCatV1.20B785,2013-09-02 00:37:00,
2013-09-01 19:42:00,78.6,72.6,29.84,WSW,244,0.0,0.0,82,0.00,,,0.00,WeatherCatV1.20B785,2013-09-02 00:42:00,
2013-09-01 19:47:00,78.1,72.1,29.84,WSW,244,0.0,0.0,82,0.00,,,0.00,WeatherCatV1.20B785,2013-09-02 00:47:00,
2013-09-01 19:52:00,77.8,71.8,29.84,WSW,244,0.0,0.0,82,0.00,,,0.00,WeatherCatV1.20B785,2013-09-02 00:52:00,
2013-09-01 19:57:00,77.3,71.4,29.84,WSW,244,0.0,0.0,82,0.00,,,0.00,WeatherCatV1.20B785,2013-09-02 00:57:00,
2013-09-01 20:02:00,77.0,71.4,29.84,WSW,244,0.0,0.0,83,0.00,,,0.00,WeatherCatV1.20B785,2013-09-02 01:02:00,
2013-09-01 20:07:00,76.7,71.5,29.84,WSW,244,0.0,0.0,84,0.00,,,0.00,WeatherCatV1.20B785,2013-09-02 01:07:00,
2013-09-01 20:12:00,76.3,71.4,29.84,WSW,244,0.0,0.0,85,0.00,,,0.00,WeatherCatV1.20B785,2013-09-02 01:12:00,
2013-09-01 20:17:00,76.0,71.5,29.84,WSW,244,0.0,0.0,86,0.00,,,0.00,WeatherCatV1.20B785,2013-09-02 01:17:00,
2013-09-01 20:22:00,75.6,71.1,29.84,WSW,244,0.0,0.0,86,0.00,,,0.00,WeatherCatV1.20B785,2013-09-02 01:22:00,
2013-09-01 20:27:00,75.3,71.2,29.84,WSW,244,0.0,0.0,87,0.00,,,0.00,WeatherCatV1.20B785,2013-09-02 01:27:00,
2013-09-01 20:32:00,74.9,70.8,29.84,WSW,244,0.0,0.0,87,0.00,,,0.00,WeatherCatV1.20B785,2013-09-02 01:32:00,
2013-09-01 20:37:00,74.6,70.8,29.85,WSW,244,0.0,0.0,88,0.00,,,0.00,WeatherCatV1.20B785,2013-09-02 01:37:00,
2013-09-01 20:42:00,74.3,70.5,29.85,WSW,244,0.0,0.0,88,0.00,,,0.00,WeatherCatV1.20B785,2013-09-02 01:42:00,
2013-09-01 20:47:00,74.0,70.5,29.85,WSW,244,0.0,0.0,89,0.00,,,0.00,WeatherCatV1.20B785,2013-09-02 01:47:00,
2013-09-01 20:52:00,73.6,70.2,29.85,WSW,244,0.0,0.0,89,0.00,,,0.00,WeatherCatV1.20B785,2013-09-02 01:52:00,
2013-09-01 20:57:00,73.3,70.2,29.86,WSW,244,0.0,0.0,90,0.00,,,0.00,WeatherCatV1.20B785,2013-09-02 01:57:00,
2013-09-01 21:02:00,73.0,69.9,29.86,WSW,244,0.0,0.0,90,0.00,,,0.00,WeatherCatV1.20B785,2013-09-02 02:02:00,
2013-09-01 21:07:00,72.8,69.7,29.86,WSW,244,0.0,0.0,90,0.00,,,0.00,WeatherCatV1.20B785,2013-09-02 02:07:00,
2013-09-01 21:12:00,72.6,69.5,29.86,WSW,244,0.0,0.0,90,0.00,,,0.00,WeatherCatV1.20B785,2013-09-02 02:12:00,
2013-09-01 21:17:00,72.4,69.6,29.86,WSW,244,0.0,0.0,91,0.00,,,0.00,WeatherCatV1.20B785,2013-09-02 02:17:00,
2013-09-01 21:22:00,72.1,69.3,29.86,WSW,244,0.0,0.0,91,0.00,,,0.00,WeatherCatV1.20B785,2013-09-02 02:22:00,
2013-09-01 21:27:00,71.9,69.1,29.86,WSW,244,0.0,0.0,91,0.00,,,0.00,WeatherCatV1.20B785,2013-09-02 02:27:00,
2013-09-01 21:32:00,71.7,69.2,29.86,WSW,244,0.0,0.0,92,0.00,,,0.00,WeatherCatV1.20B785,2013-09-02 02:32:00,
2013-09-01 21:37:00,71.6,69.2,29.86,WSW,244,0.0,0.0,92,0.00,,,0.00,WeatherCatV1.20B785,2013-09-02 02:37:00,
2013-09-01 21:42:00,71.4,68.9,29.86,WSW,244,0.0,0.0,92,0.00,,,0.00,WeatherCatV1.20B785,2013-09-02 02:42:00,
2013-09-01 21:47:00,71.3,68.8,29.87,WSW,244,0.0,0.0,92,0.00,,,0.00,WeatherCatV1.20B785,2013-09-02 02:47:00,
2013-09-01 21:52:00,71.1,69.0,29.87,WSW,244,0.0,0.0,93,0.00,,,0.00,WeatherCatV1.20B785,2013-09-02 02:52:00,
2013-09-01 21:57:00,71.0,68.9,29.87,WSW,244,0.0,0.0,93,0.00,,,0.00,WeatherCatV1.20B785,2013-09-02 02:57:00,
2013-09-01 22:02:00,70.9,69.1,29.87,WSW,244,0.0,0.0,94,0.00,,,0.00,WeatherCatV1.20B785,2013-09-02 03:02:00,
2013-09-01 22:07:00,70.8,69.0,29.87,WSW,244,0.0,0.0,94,0.00,,,0.00,WeatherCatV1.20B785,2013-09-02 03:07:00,
2013-09-01 22:12:00,70.6,68.8,29.87,WSW,244,0.0,0.0,94,0.00,,,0.00,WeatherCatV1.20B785,2013-09-02 03:12:00,
2013-09-01 22:17:00,70.5,68.7,29.88,WSW,244,0.0,0.0,94,0.00,,,0.00,WeatherCatV1.20B785,2013-09-02 03:17:00,
2013-09-01 22:22:00,70.4,68.6,29.88,WSW,244,0.0,0.0,94,0.00,,,0.00,WeatherCatV1.20B785,2013-09-02 03:22:00,
2013-09-01 22:27:00,70.2,68.4,29.88,WSW,244,0.0,0.0,94,0.00,,,0.00,WeatherCatV1.20B785,2013-09-02 03:27:00,
2013-09-01 22:32:00,70.1,68.3,29.88,WSW,244,0.0,0.0,94,0.00,,,0.00,WeatherCatV1.20B785,2013-09-02 03:32:00,
2013-09-01 22:37:00,70.0,68.2,29.88,WSW,244,0.0,0.0,94,0.00,,,0.00,WeatherCatV1.20B785,2013-09-02 03:37:00,
2013-09-01 22:42:00,69.9,68.1,29.88,WSW,244,0.0,0.0,94,0.00,,,0.00,WeatherCatV1.20B785,2013-09-02 03:42:00,
2013-09-01 22:47:00,69.8,68.3,29.89,WSW,244,0.0,0.0,95,0.00,,,0.00,WeatherCatV1.20B785,2013-09-02 03:47:00,
2013-09-01 22:52:00,69.7,68.2,29.89,WSW,244,0.0,0.0,95,0.00,,,0.00,WeatherCatV1.20B785,2013-09-02 03:52:00,
2013-09-01 22:57:00,69.5,68.0,29.89,WSW,244,0.0,0.0,95,0.00,,,0.00,WeatherCatV1.20B785,2013-09-02 03:57:00,
2013-09-01 23:01:00,69.5,68.0,29.89,WSW,244,0.0,0.0,95,0.00,,,0.00,WeatherCatV1.20B785,2013-09-02 04:01:00,
2013-09-01 23:06:00,69.4,67.9,29.89,WSW,244,0.0,0.0,95,0.00,,,0.00,WeatherCatV1.20B785,2013-09-02 04:06:00,
2013-09-01 23:11:00,69.3,67.8,29.89,WSW,244,0.0,0.0,95,0.00,,,0.00,WeatherCatV1.20B785,2013-09-02 04:11:00,
2013-09-01 23:16:00,69.2,67.7,29.89,WSW,244,0.0,0.0,95,0.00,,,0.00,WeatherCatV1.20B785,2013-09-02 04:16:00,
2013-09-01 23:21:00,69.1,67.6,29.89,WSW,244,0.0,0.0,95,0.00,,,0.00,WeatherCatV1.20B785,2013-09-02 04:21:00,
2013-09-01 23:26:00,69.0,67.5,29.88,WSW,244,0.0,0.0,95,0.00,,,0.00,WeatherCatV1.20B785,2013-09-02 04:26:00,
2013-09-01 23:31:00,68.9,67.7,29.89,WSW,244,0.0,0.0,96,0.00,,,0.00,WeatherCatV1.20B785,2013-09-02 04:31:00,
2013-09-01 23:36:00,68.9,67.7,29.89,WSW,244,0.0,0.0,96,0.00,,,0.00,WeatherCatV1.20B785,2013-09-02 04:36:00,
2013-09-01 23:41:00,68.8,67.6,29.89,WSW,244,0.0,0.0,96,0.00,,,0.00,WeatherCatV1.20B785,2013-09-02 04:41:00,
2013-09-01 23:46:00,68.8,67.6,29.89,WSW,244,0.0,0.0,96,0.00,,,0.00,WeatherCatV1.20B785,2013-09-02 04:46:00,
2013-09-01 23:51:00,68.7,67.5,29.89,WSW,244,0.0,0.0,96,0.00,,,0.00,WeatherCatV1.20B785,2013-09-02 04:51:00,
2013-09-01 23:56:00,68.7,67.5,29.89,WSW,244,0.0,0.0,96,0.00,,,0.00,WeatherCatV1.20B785,2013-09-02 04:56:00,